sat.trackr.live / text

‹ back to catalog

AEROCUBE 16B

NORAD 59291 · 2024-053D

PAYLOAD ACTIVE UNKNOWN

§ Identity

Operator
Country
US
Launch date
2024-03-21
Launch site
WLPIS
Launch vehicle
Mass (kg)
RCS (m²)

External: N2YO · Heavens-Above · Gunter

§ Orbital elements

Epoch: 2026-05-25T04:35:34.559808Z

Period
93.32 min
Inclination
49.9906°
Eccentricity
0.0001963
Mean motion
15.43019122 rev/d
Perigee alt
435.9 km
Apogee alt
438.5 km
Semi-major
6,815.3 km
B*
3.3652e-4
RAAN
81.8093°
Arg perigee
233.1252°
Mean anomaly
126.9531°
Rev number
11,763

§ Raw data

AEROCUBE 16B1 59291U 24053D   26145.19137222  .00014728  00000+0  33652-3 0  99982 59291  49.9906  81.8093 0001963 233.1252 126.9531 15.43019122117634

JSON: /api/v1/satellites/59291 · /tle

For live sub-satellite position, see the globe view (requires WebGL).

§ Visibility from observer

Set your observer location to see the next 7 days of passes ≥ 10°. The values pass through the URL so the page stays shareable.

No JS? Fill the form by hand. The geolocation button needs JavaScript.

§ Radio — SatNOGS DB

ModeDescriptionDownlinkUplink
FM S-band telemetry 2.225 GHz

1 transmitter · refreshed weekly from db.satnogs.org